WZZ9SW LBSF-LGSK

Flight info

Callsign WZZ9SW
Flight time 0h 42m
Altitude 27000
Route OMENO Y505 NIKTI UY505 PEREN UV652 SKP
Aircraft A320/M-SDE3FGHIRWY/LB1

Departure

Time 2026-04-15 15:43
Airport Sofia Airport (LBSF)

Arrival

Time 2026-04-15 16:25
Airport Skiathos Island National Airport (LGSK)
Time Latitude Longitude Altitude Speed Heading
2026-04-15 15:08 42.69026 23.40520 1768 ft 0 kts 198°
2026-04-15 15:34 42.69027 23.40521 1766 ft 0 kts 198°
2026-04-15 15:34 42.69032 23.40523 1766 ft 0 kts 197°
2026-04-15 15:38 42.69027 23.40521 1767 ft 3 kts 197°
2026-04-15 15:38 42.68991 23.40483 1768 ft 10 kts 252°
2026-04-15 15:38 42.69006 23.40380 1768 ft 11 kts 287°
2026-04-15 15:39 42.69031 23.40268 1767 ft 13 kts 286°
2026-04-15 15:39 42.69059 23.40143 1766 ft 14 kts 286°
2026-04-15 15:39 42.69089 23.39996 1763 ft 17 kts 276°
2026-04-15 15:39 42.69118 23.39838 1762 ft 17 kts 283°
2026-04-15 15:40 42.69149 23.39676 1762 ft 18 kts 287°
2026-04-15 15:40 42.69212 23.39541 1760 ft 18 kts 347°
2026-04-15 15:40 42.69300 23.39555 1758 ft 12 kts
2026-04-15 15:40 42.69389 23.39563 1756 ft 10 kts
2026-04-15 15:41 42.69451 23.39572 1754 ft 10 kts
2026-04-15 15:41 42.69520 23.39582 1753 ft 9 kts
2026-04-15 15:41 42.69588 23.39589 1751 ft 10 kts
2026-04-15 15:41 42.69662 23.39596 1751 ft 11 kts
2026-04-15 15:42 42.69745 23.39618 1750 ft 13 kts 37°
2026-04-15 15:42 42.69766 23.39735 1749 ft 14 kts 93°
2026-04-15 15:42 42.69736 23.40201 1750 ft 86 kts 94°
2026-04-15 15:42 42.69668 23.41320 1752 ft 148 kts 95°
2026-04-15 15:43 42.69595 23.42835 2141 ft 166 kts 93°
2026-04-15 15:43 42.69552 23.44442 2719 ft 177 kts 91°
2026-04-15 15:43 42.69547 23.46129 3397 ft 185 kts 89°
2026-04-15 15:43 42.69510 23.47884 4059 ft 192 kts 95°
2026-04-15 15:44 42.69293 23.49755 4517 ft 209 kts 108°
2026-04-15 15:44 42.68382 23.51341 4914 ft 229 kts 147°
2026-04-15 15:44 42.66817 23.51973 5419 ft 246 kts 177°
2026-04-15 15:44 42.65090 23.52064 6067 ft 258 kts 169°
2026-04-15 15:45 42.63354 23.52837 6753 ft 269 kts 156°
2026-04-15 15:45 42.61630 23.53881 7638 ft 272 kts 155°
2026-04-15 15:45 42.60503 23.54573 8220 ft 274 kts 155°
2026-04-15 15:45 42.58161 23.55968 9382 ft 278 kts 156°
2026-04-15 15:46 42.56379 23.56997 10210 ft 282 kts 156°
2026-04-15 15:46 42.54561 23.58029 10868 ft 292 kts 157°
2026-04-15 15:46 42.52631 23.59111 11293 ft 310 kts 157°
2026-04-15 15:46 42.50584 23.60251 11685 ft 328 kts 158°
2026-04-15 15:47 42.48402 23.61459 12092 ft 345 kts 158°
2026-04-15 15:47 42.46186 23.62677 12747 ft 352 kts 158°
2026-04-15 15:47 42.43910 23.63929 13486 ft 356 kts 158°
2026-04-15 15:47 42.41593 23.65200 14192 ft 361 kts 159°
2026-04-15 15:48 42.39267 23.66486 14872 ft 366 kts 159°
2026-04-15 15:48 42.36906 23.67792 15554 ft 371 kts 159°
2026-04-15 15:48 42.34503 23.69116 16205 ft 375 kts 159°
2026-04-15 15:48 42.32079 23.70447 16846 ft 380 kts 159°
2026-04-15 15:49 42.29620 23.71790 17470 ft 384 kts 159°
2026-04-15 15:49 42.27131 23.73150 18079 ft 388 kts 159°
2026-04-15 15:49 42.24638 23.74509 18685 ft 392 kts 159°
2026-04-15 15:49 42.22107 23.75889 19298 ft 395 kts 159°
2026-04-15 15:50 42.19540 23.77287 19896 ft 399 kts 159°
2026-04-15 15:50 42.16976 23.78681 20480 ft 402 kts 160°
2026-04-15 15:50 42.14364 23.80099 21065 ft 406 kts 160°
2026-04-15 15:50 42.11763 23.81509 21635 ft 409 kts 160°
2026-04-15 15:51 42.09114 23.82945 22200 ft 412 kts 160°
2026-04-15 15:51 42.06448 23.84388 22761 ft 416 kts 160°
2026-04-15 15:51 42.03752 23.85847 23315 ft 419 kts 160°
2026-04-15 15:51 42.01062 23.87303 23853 ft 422 kts 160°
2026-04-15 15:52 41.98309 23.88791 24388 ft 425 kts 160°
2026-04-15 15:52 41.95583 23.90264 24908 ft 428 kts 161°
2026-04-15 15:52 41.92794 23.91767 25413 ft 430 kts 161°
2026-04-15 15:52 41.90015 23.93263 25896 ft 433 kts 161°
2026-04-15 15:53 41.87197 23.94774 26379 ft 436 kts 161°
2026-04-15 15:53 41.84404 23.96266 26841 ft 438 kts 161°
2026-04-15 15:53 41.81548 23.97794 27108 ft 440 kts 162°
2026-04-15 15:53 41.78725 23.99305 27130 ft 440 kts 162°
2026-04-15 15:54 41.75875 24.00830 27135 ft 441 kts 162°
2026-04-15 15:54 41.73053 24.02339 27131 ft 441 kts 162°
2026-04-15 15:54 41.70199 24.03863 27135 ft 441 kts 162°
2026-04-15 15:54 41.67361 24.05377 27135 ft 441 kts 162°
2026-04-15 15:55 41.64500 24.06905 27134 ft 441 kts 162°
2026-04-15 15:55 41.61623 24.08272 27109 ft 436 kts 171°
2026-04-15 15:55 41.58670 24.08437 27128 ft 423 kts 191°
2026-04-15 15:55 41.55745 24.07792 27128 ft 424 kts 194°
2026-04-15 15:56 41.52855 24.07083 27126 ft 423 kts 194°
2026-04-15 15:56 41.49958 24.06399 27130 ft 423 kts 193°
2026-04-15 15:56 41.47060 24.05747 27122 ft 424 kts 193°
2026-04-15 15:56 41.44168 24.05125 27124 ft 424 kts 192°
2026-04-15 15:57 41.41231 24.04513 27123 ft 425 kts 192°
2026-04-15 15:57 41.38311 24.03917 27124 ft 425 kts 192°
2026-04-15 15:57 41.35383 24.03325 27126 ft 424 kts 192°
2026-04-15 15:57 41.32478 24.02744 27122 ft 425 kts 192°
2026-04-15 15:58 41.29555 24.02160 27120 ft 425 kts 192°
2026-04-15 15:58 41.26646 24.01582 27122 ft 424 kts 192°
2026-04-15 15:58 41.23747 24.01011 27116 ft 424 kts 192°
2026-04-15 15:58 41.20814 24.00431 27113 ft 423 kts 192°
2026-04-15 15:59 41.17913 23.99857 27112 ft 424 kts 192°
2026-04-15 15:59 41.15008 23.99286 27108 ft 424 kts 192°
2026-04-15 15:59 41.12096 23.98712 27106 ft 424 kts 192°
2026-04-15 15:59 41.09178 23.98140 27103 ft 423 kts 192°
2026-04-15 16:00 41.06260 23.97565 27101 ft 423 kts 192°
2026-04-15 16:00 41.03370 23.96998 27101 ft 422 kts 192°
2026-04-15 16:00 41.00455 23.96425 27096 ft 423 kts 192°
2026-04-15 16:00 40.97557 23.95857 27094 ft 423 kts 192°
2026-04-15 16:01 40.94628 23.95284 27092 ft 423 kts 192°
2026-04-15 16:01 40.91716 23.94713 27091 ft 423 kts 192°
2026-04-15 16:01 40.88812 23.94147 27091 ft 423 kts 191°
2026-04-15 16:01 40.85919 23.93585 27090 ft 423 kts 192°
2026-04-15 16:02 40.82994 23.93018 27089 ft 423 kts 191°
2026-04-15 16:02 40.80090 23.92455 27089 ft 423 kts 191°
2026-04-15 16:02 40.77180 23.91891 27089 ft 422 kts 191°
2026-04-15 16:02 40.74279 23.91328 27088 ft 423 kts 191°
2026-04-15 16:03 40.71387 23.90768 27088 ft 422 kts 191°
2026-04-15 16:03 40.68468 23.90201 27088 ft 422 kts 191°
2026-04-15 16:03 40.65540 23.89634 27087 ft 422 kts 191°
2026-04-15 16:03 40.62619 23.89066 27088 ft 422 kts 191°
2026-04-15 16:04 40.59716 23.88504 27089 ft 421 kts 192°
2026-04-15 16:04 40.56775 23.87934 27090 ft 421 kts 191°
2026-04-15 16:04 40.53862 23.87372 26959 ft 423 kts 191°
2026-04-15 16:04 40.50984 23.86813 26341 ft 421 kts 191°
2026-04-15 16:05 40.48097 23.86254 25716 ft 418 kts 191°
2026-04-15 16:05 40.45246 23.85703 25142 ft 415 kts 191°
2026-04-15 16:05 40.42385 23.85151 24570 ft 411 kts 191°
2026-04-15 16:05 40.39587 23.84610 23982 ft 408 kts 190°
2026-04-15 16:06 40.36771 23.84069 23397 ft 406 kts 190°
2026-04-15 16:06 40.34005 23.83537 22838 ft 403 kts 190°
2026-04-15 16:06 40.31250 23.83010 22290 ft 400 kts 189°
2026-04-15 16:06 40.28497 23.82483 21782 ft 397 kts 190°
2026-04-15 16:07 40.25803 23.81966 21303 ft 393 kts 189°
2026-04-15 16:07 40.23117 23.81452 20803 ft 389 kts 189°
2026-04-15 16:07 40.17816 23.80438 19843 ft 382 kts 189°
2026-04-15 16:08 40.15208 23.79939 19342 ft 379 kts 189°
2026-04-15 16:08 40.13473 23.79608 18997 ft 378 kts 189°
2026-04-15 16:08 40.10005 23.78946 18328 ft 375 kts 189°
2026-04-15 16:08 40.07447 23.78458 17858 ft 372 kts 189°
2026-04-15 16:09 40.04895 23.77971 17408 ft 369 kts 189°
2026-04-15 16:09 40.02369 23.77490 16972 ft 365 kts 189°
2026-04-15 16:09 39.99905 23.77020 16540 ft 361 kts 189°
2026-04-15 16:09 39.97431 23.76550 16092 ft 358 kts 189°
2026-04-15 16:10 39.94964 23.76080 15614 ft 356 kts 189°
2026-04-15 16:10 39.92518 23.75615 15144 ft 353 kts 189°
2026-04-15 16:10 39.90093 23.75155 14683 ft 351 kts 189°
2026-04-15 16:10 39.87696 23.74702 14240 ft 348 kts 189°
2026-04-15 16:11 39.85295 23.74249 13792 ft 345 kts 189°
2026-04-15 16:11 39.82950 23.73806 13346 ft 342 kts 189°
2026-04-15 16:11 39.80602 23.73362 12818 ft 342 kts 189°
2026-04-15 16:11 39.78254 23.72920 12326 ft 341 kts 189°
2026-04-15 16:12 39.75903 23.72476 11844 ft 339 kts 189°
2026-04-15 16:12 39.73599 23.72041 11374 ft 337 kts 189°
2026-04-15 16:12 39.71276 23.71603 10903 ft 335 kts 189°
2026-04-15 16:12 39.68994 23.71174 10462 ft 332 kts 189°
2026-04-15 16:13 39.66729 23.70746 10238 ft 320 kts 189°
2026-04-15 16:13 39.64587 23.70344 10149 ft 305 kts 189°
2026-04-15 16:13 39.62540 23.69958 10063 ft 291 kts 189°
2026-04-15 16:13 39.60560 23.69585 9987 ft 277 kts 189°
2026-04-15 16:14 39.58691 23.69232 9689 ft 274 kts 189°
2026-04-15 16:14 39.56794 23.68873 9340 ft 273 kts 189°
2026-04-15 16:14 39.54932 23.68521 9010 ft 270 kts 188°
2026-04-15 16:14 39.53068 23.68169 8693 ft 268 kts 188°
2026-04-15 16:15 39.51251 23.67827 8376 ft 266 kts 188°
2026-04-15 16:15 39.49421 23.67483 8059 ft 264 kts 188°
2026-04-15 16:15 39.47614 23.67143 7747 ft 262 kts 187°
2026-04-15 16:15 39.45806 23.66805 7418 ft 261 kts 187°
2026-04-15 16:16 39.44024 23.66472 7101 ft 260 kts 187°
2026-04-15 16:16 39.42236 23.66137 6791 ft 258 kts 187°
2026-04-15 16:16 39.40463 23.65805 6484 ft 256 kts 187°
2026-04-15 16:16 39.38701 23.65476 6179 ft 255 kts 187°
2026-04-15 16:17 39.36967 23.65152 5872 ft 254 kts 186°
2026-04-15 16:17 39.35210 23.64825 5559 ft 253 kts 186°
2026-04-15 16:17 39.33466 23.64500 5250 ft 253 kts 186°
2026-04-15 16:17 39.31723 23.64175 4944 ft 253 kts 186°
2026-04-15 16:18 39.29973 23.63848 4641 ft 253 kts 186°
2026-04-15 16:18 39.28238 23.63525 4340 ft 253 kts 186°
2026-04-15 16:18 39.26510 23.63204 4117 ft 247 kts 186°
2026-04-15 16:18 39.24836 23.62891 3895 ft 242 kts 186°
2026-04-15 16:19 39.23726 23.62684 3733 ft 240 kts 186°
2026-04-15 16:19 39.21538 23.62277 3408 ft 235 kts 186°
2026-04-15 16:19 39.19942 23.61979 3081 ft 228 kts 186°
2026-04-15 16:19 39.19422 23.61879 2959 ft 227 kts 188°
2026-04-15 16:20 39.17178 23.60408 2500 ft 210 kts 227°
2026-04-15 16:20 39.16307 23.59075 2523 ft 183 kts 232°
2026-04-15 16:20 39.15570 23.57865 2454 ft 162 kts 232°
2026-04-15 16:20 39.14902 23.56773 2390 ft 150 kts 232°
2026-04-15 16:21 39.14244 23.55716 2380 ft 150 kts 231°
2026-04-15 16:21 39.13580 23.54666 2359 ft 151 kts 231°
2026-04-15 16:21 39.12913 23.53622 2333 ft 151 kts 231°
2026-04-15 16:21 39.12244 23.52580 2258 ft 150 kts 231°
2026-04-15 16:22 39.11582 23.51553 2177 ft 150 kts 231°
2026-04-15 16:22 39.10917 23.50521 2092 ft 149 kts 231°
2026-04-15 16:22 39.10251 23.49487 1995 ft 149 kts 231°
2026-04-15 16:22 39.09628 23.48436 1752 ft 147 kts 246°
2026-04-15 16:23 39.09643 23.47232 1521 ft 133 kts 310°
2026-04-15 16:23 39.10394 23.46698 1371 ft 127 kts
2026-04-15 16:23 39.11234 23.47071 1268 ft 132 kts 27°
2026-04-15 16:23 39.12058 23.47607 1050 ft 132 kts 26°
2026-04-15 16:24 39.12904 23.48114 870 ft 133 kts 26°
2026-04-15 16:24 39.13743 23.48597 647 ft 132 kts 21°
2026-04-15 16:24 39.14608 23.48983 552 ft 132 kts 20°
2026-04-15 16:24 39.15473 23.49373 350 ft 131 kts 19°
2026-04-15 16:25 39.16343 23.49754 182 ft 131 kts 18°
2026-04-15 16:25 39.17202 23.50134 27 ft 128 kts 18°
2026-04-15 16:25 39.17870 23.50431 63 ft 62 kts 19°
2026-04-15 16:25 39.18115 23.50540 71 ft 30 kts 19°
2026-04-15 16:26 39.18303 23.50622 70 ft 18 kts 18°
2026-04-15 16:26 39.18394 23.50653 68 ft 8 kts
2026-04-15 16:26 39.18410 23.50688 66 ft 6 kts 157°
2026-04-15 16:26 39.18372 23.50658 68 ft 6 kts 210°
2026-04-15 16:27 39.18327 23.50636 69 ft 7 kts 196°
2026-04-15 16:27 39.18275 23.50614 70 ft 8 kts 199°
2026-04-15 16:27 39.18214 23.50587 70 ft 10 kts 199°
2026-04-15 16:27 39.18141 23.50555 71 ft 11 kts 200°
2026-04-15 16:28 39.18056 23.50517 70 ft 14 kts 199°
2026-04-15 16:28 39.17967 23.50472 67 ft 9 kts 215°
2026-04-15 16:28 39.17927 23.50394 66 ft 11 kts 249°
2026-04-15 16:28 39.17903 23.50337 65 ft 8 kts 228°
2026-04-15 16:29 39.17833 23.50299 61 ft 9 kts 198°
2026-04-15 16:29 39.17789 23.50280 58 ft 8 kts 199°
2026-04-15 16:29 39.17759 23.50259 57 ft 3 kts 240°
2026-04-15 16:29 39.17765 23.50235 57 ft 2 kts 323°
2026-04-15 16:30 39.17777 23.50229 58 ft 0 kts 345°
2026-04-15 16:30 39.17779 23.50229 58 ft 0 kts 343°
2026-04-15 16:30 39.17783 23.50226 58 ft 0 kts 332°
2026-04-15 16:30 39.17807 23.50207 59 ft 4 kts 326°
2026-04-15 16:31 39.17821 23.50193 60 ft 0 kts 324°
2026-04-15 16:31 39.17823 23.50191 60 ft 0 kts 324°